Elkins, WV

1:27 PM EDT on May 28, 2017 (GMT -0400)
Elkins-Randolph County

Weather History for KEKN - March, 2013

Change the Weather History Date:

Tuesday, March 12, 2013

  Actual Average Record
Temperature  
Mean Temperature 45 °F 38 °F  
Max Temperature 56 °F 50 °F 79 °F (1990)
Min Temperature 34 °F 27 °F -1 °F (1934)
Degree Days  
Heating Degree Days 20 27  
Month to date heating degree days 360 338  
Since 1 July heating degree days 4607 4659  
Cooling Degree Days 0 0  
Month to date cooling degree days 0 0  
Year to date cooling degree days 0 0  
Moisture  
Dew Point 33 °F    
Average Humidity 77    
Maximum Humidity 89    
Minimum Humidity 64    
Precipitation  
Precipitation 0.27 in 0.12 in 1.27 in (1968)
Month to date precipitation 0.82 1.47  
Year to date precipitation 7.43 7.80  
Snow  
Snow 0.00 in - - ()
Month to date snowfall 7.3  
Since 1 September snowfall 66.0  
Snow Depth 0.00 in    
Sea Level Pressure  
Sea Level Pressure 29.91 in    
Wind  
Wind Speed 7 mph (West)    
Max Wind Speed 18 mph    
Max Gust Speed 25 mph    
Visibility 9 miles    
Events Rain    
T = Trace of Precipitation, MM = Missing Value Source: NWS Daily Summary

Daily Weather History Graph

Daily Weather History Graph

Search for Another Location

Airport or City:

Trip Planner

Search our weather history database for the weather conditions in past years. The results will help you decide how hot, cold, wet, or windy it might be!

Date:

Astronomy

Mar. 12, 2013 Rise Set
Actual Time 7:35 AM EDT 7:23 PM EDT
Civil Twilight 7:08 AM EDT 7:50 PM EDT
Nautical Twilight 6:37 AM EDT 8:21 PM EDT
Astronomical Twilight 6:06 AM EDT 8:52 PM EDT
Moon 7:41 AM EDT (3/12) 8:36 PM EDT (3/12)
Length of Visible Light 12h 41m
Length of Day
11h 48m
New Moon, 1% of the Moon is Illuminated
Mar 12
New Moon
Mar 19
First Quarter
Mar 27
Full
Apr 3
Last Quarter
Apr 10
New

Hourly Weather History & Observations

Time (EDT) Temp. Windchill Dew Point Humidity Pressure Visibility Wind Dir Wind Speed Gust Speed Precip Events Conditions
12:51 AM 55.0 °F - 45.0 °F 69% 29.78 in 10.0 mi South 3.5 mph - 0.00 in   Overcast
1:51 AM 53.6 °F - 46.4 °F 77% 29.76 in 10.0 mi SSE 3.5 mph - N/A   Overcast
2:49 AM 51.8 °F - 46.4 °F 82% 29.78 in 2.5 mi WNW 11.5 mph - 0.03 in Rain Heavy Rain
2:51 AM 51.1 °F - 46.9 °F 86% 29.79 in 2.0 mi WNW 9.2 mph - 0.06 in Rain Heavy Rain
3:10 AM 46.4 °F 40.7 °F 42.8 °F 87% 29.80 in 4.0 mi NW 12.7 mph 25.3 mph 0.13 in Rain Heavy Rain
3:21 AM 46.4 °F 41.9 °F 42.8 °F 87% 29.82 in 7.0 mi NNW 9.2 mph - 0.15 in Rain Light Rain
3:51 AM 43.0 °F 39.5 °F 39.0 °F 86% 29.86 in 10.0 mi North 5.8 mph - 0.16 in Rain Light Rain
4:51 AM 41.0 °F 36.4 °F 37.0 °F 86% 29.86 in 10.0 mi NW 6.9 mph - 0.00 in Rain Light Rain
5:51 AM 41.0 °F 39.0 °F 36.0 °F 82% 29.87 in 5.0 mi North 3.5 mph - 0.04 in Rain Rain
6:09 AM 39.2 °F - 37.4 °F 93% 29.84 in 10.0 mi Calm Calm - 0.01 in Rain Light Rain
6:37 AM 39.2 °F 35.9 °F 35.6 °F 87% 29.85 in 10.0 mi NW 4.6 mph - 0.01 in   Overcast
6:51 AM 39.0 °F 31.8 °F 35.1 °F 86% 29.88 in 10.0 mi WNW 11.5 mph - 0.01 in   Overcast
7:51 AM 37.9 °F 34.4 °F 34.0 °F 86% 29.89 in 10.0 mi NW 4.6 mph - N/A   Overcast
8:51 AM 37.0 °F 32.4 °F 34.0 °F 89% 29.92 in 5.0 mi WNW 5.8 mph - 0.00 in Rain Light Rain
9:51 AM 37.0 °F 31.6 °F 30.9 °F 79% 29.94 in 10.0 mi SW 6.9 mph - 0.00 in   Overcast
10:26 AM 37.4 °F 30.8 °F 32.0 °F 81% 29.91 in 10.0 mi West 9.2 mph - N/A   Overcast
10:51 AM 37.0 °F 29.3 °F 30.9 °F 79% 29.93 in 10.0 mi West 11.5 mph - N/A   Overcast
11:24 AM 37.4 °F 31.4 °F 30.2 °F 75% 29.91 in 10.0 mi West 8.1 mph - N/A   Overcast
11:51 AM 37.0 °F 30.4 °F 30.9 °F 79% 29.95 in 10.0 mi WSW 9.2 mph - N/A   Overcast
12:49 PM 35.6 °F 29.2 °F 30.2 °F 81% 29.91 in 6.0 mi WNW 8.1 mph - 0.00 in Rain Light Rain
12:51 PM 36.0 °F 28.0 °F 30.9 °F 82% 29.94 in 6.0 mi WNW 11.5 mph 16.1 mph 0.00 in Rain Light Rain
1:15 PM 37.4 °F 30.8 °F 32.0 °F 81% 29.91 in 10.0 mi WSW 9.2 mph - 0.00 in   Overcast
1:51 PM 36.0 °F 28.5 °F 30.0 °F 79% 29.94 in 10.0 mi West 10.4 mph - 0.00 in   Overcast
2:00 PM 35.6 °F 29.9 °F 30.2 °F 81% 29.92 in 10.0 mi West 6.9 mph - N/A   Overcast
2:51 PM 36.0 °F 30.3 °F 30.9 °F 82% 29.97 in 9.0 mi WSW 6.9 mph - 0.00 in   Overcast
3:10 PM 35.6 °F 28.6 °F 28.4 °F 75% 29.92 in 10.0 mi WSW 9.2 mph - 0.00 in   Overcast
3:51 PM 37.0 °F 29.8 °F 28.9 °F 73% 29.96 in 10.0 mi WSW 10.4 mph 16.1 mph 0.00 in   Overcast
4:51 PM 36.0 °F 28.0 °F 28.0 °F 73% 29.98 in 10.0 mi West 11.5 mph 16.1 mph N/A   Overcast
5:51 PM 36.0 °F 29.6 °F 27.0 °F 70% 29.99 in 10.0 mi WSW 8.1 mph - N/A   Overcast
6:51 PM 36.0 °F 30.3 °F 28.0 °F 73% 30.01 in 10.0 mi NW 6.9 mph - N/A   Overcast
7:51 PM 35.1 °F 30.1 °F 26.1 °F 70% 30.03 in 10.0 mi Variable 5.8 mph - N/A   Overcast
8:51 PM 35.1 °F 30.1 °F 24.1 °F 64% 30.04 in 10.0 mi Variable 5.8 mph 17.3 mph N/A   Overcast
9:51 PM 35.1 °F 30.1 °F 24.1 °F 64% 30.05 in 10.0 mi West 5.8 mph - N/A   Overcast
10:51 PM 35.1 °F 30.1 °F 24.1 °F 64% 30.06 in 10.0 mi WSW 5.8 mph - N/A   Overcast
11:51 PM 35.1 °F - 26.1 °F 70% 30.07 in 10.0 mi Calm Calm - N/A   Overcast